Location: Ajisawe
(8.4333°N, 4.3833°E)
Time: 22:51:30
(UTC+00:00)

A-11 Canister half - Pass Details

Date: 28 April 2021
Orbit: 1514 x 1685 km, 47.2° (Epoch: 14 May)

Event Time Altitude Azimuth Distance (km) Brightness Sun altitude
Rises 01:50:58 0° 330° (NNW) 4,820 11.6 -50.4°
Enters shadow 01:52:21 - 332° (NNW) 4,411 11.4 -50.1°
Exits shadow 02:03:53 47° 51° (NE) 2,105 9.8 -47.8°
Drops below altitude 10° 02:13:14 10° 118° (ESE) 3,943 11.4 -45.8°
Sets 02:16:36 0° 124° (SE) 4,934 11.9 -45.1°
